Tracking 26442 objects as of 7-Dec-2022
HD Live streaming from Space Station
objects crossing your sky now

NOAA 16 DEB

Track NOAA 16 DEB now!
10-day predictions


NORAD ID: 42335
Int'l Code: 2000-055QB
Perigee: 810.7 km
Apogee: 853.3 km
Inclination: 98.6 °
Period: 101.4 minutes
Semi major axis: 7202 km
RCS: Unknown
Launch date: September 21, 2000
Source: United States (US)
Launch site: AIR FORCE WESTERN TEST RANGE (AFWTR)

Note: This is SATELLITE DEBRIS
aabbcc
Your satellite tracking list
Your tracking list is empty




NASA's NSSDC Master Catalog

Two Line Element Set (TLE):
1 42335U 00055QB  22340.44210054  .00002465  00000-0  11703-2 0  9999
2 42335  98.6457  38.0263 0029583   8.6948 351.4735 14.20152737349299
Source of the keplerian elements: AFSPC